SL-14 DEB, 45459

Orbit data source: Space-Track

SL-14 DEB, 45459 is space debris in LEO originally from a launch on Thu, 15 Aug 1991 UTC launched from the Plesetsk Missile And Space Complex (PKMTR). Debris objects in space refer to the collection of defunct objects orbiting the Earth. Examples of debris include non-operational satellites, rocket bodies, and fragments generated from explosions, collisions, or faulty payload assembly.

Loading next visibility...
Identifier
45459, 1991-056CT
Orbit
LEO
Country
Flag of CISCIS
Related business
Manufacturer
Unknown
Mission
Spacecraft
Bus & Motor
Unknown
Mass
Unknown
Launch date (UTC)
1991-08-15 (35 years ago)
Launch vehicle
Unknown
Launch site
Plesetsk Missile And Space Complex (PKMTR)
Object type
Payload
Rocket body
Debris
Shape & HBR
Unknown shape, 0.1 m
Radar Cross Section
Small (<0.1 m²)

Expand to show TLE details & history
Last TLE update: 2 months ago

TLE from 2 months ago
0 SL-14 DEB
1 45459U 91056CT  26203.89834564  .00009188  00000-0  75210-2 0  9991
2 45459  82.6006  16.5902 0134000 350.9648   8.9102 13.85322802181382
Epoch: 2026-07-22T21:33Z
TLE epoch observation values (Epoch: 2026-07-22T21:33:37.063Z)
Latitude
0.00002°
Longitude
112.53869°
Altitude
851.04 km
Speed
7.476 km/s
True Right ascension
01h 06m 21s
True Declination
0° 00' 00"
Sunlit
Object was in daylight at epoch
Visualization orbit readout
Latitude
Unknown
Longitude
Unknown
Altitude
Unknown
Speed
Unknown
Apparent Right ascension
Unknown
Apparent Declination
Unknown
Sunlit
N/A
Visualization observer readout
Local Sidereal Time
06:58:19
Azimuth
Unknown
Elevation
Unknown
Doppler factor
Unknown
Orbital elements
Apogee altitude
1,040.308 km
Perigee altitude
844.122 km
Semi-major axis
7,320.352 km
Eccentricity
0.0134
Inclination
82.6006°
RAAN
16.5902°
Arg. of periapsis
350.9648°
True anomaly
9.15203°
Mean anomaly
8.9102°
Eccentric anomaly
9.03071°
Mean motion
3.46533 °/min
Orbital period
103.89 mins
BSTAR
0.007521
Loading maneuver chart data...
Computing Atmospheric mass density...
Loading historical data...
Loading historical data...
Loading historical data...
Loading historical data...
Loading historical data...
Loading historical data...
Loading historical data...

Documentation

Showing up to 5 results
|